N11816 ENAN-ESNQ

Flight info

Callsign N11816
Flight time 0h 45m
Altitude 9500
Route SOUTHEAST BOUND
Aircraft BE58/L-SDFGRY/C

Departure

Time 2026-05-08 02:09
Airport Andøya Airport, Andenes (ENAN)

Arrival

Time 2026-05-08 02:54
Airport Kiruna Airport (ESNQ)
Time Latitude Longitude Altitude Speed Heading
2026-05-08 01:51 69.29266 16.13171 19 ft 0 kts 56°
2026-05-08 02:05 69.29269 16.13191 19 ft 5 kts 68°
2026-05-08 02:05 69.29272 16.13210 19 ft 1 kts 72°
2026-05-08 02:06 69.29274 16.13291 19 ft 9 kts 85°
2026-05-08 02:06 69.29306 16.13567 19 ft 19 kts 49°
2026-05-08 02:06 69.29440 16.13456 20 ft 25 kts 331°
2026-05-08 02:06 69.29614 16.13169 20 ft 34 kts 327°
2026-05-08 02:07 69.29864 16.12741 24 ft 49 kts 329°
2026-05-08 02:07 69.30176 16.12241 34 ft 52 kts 329°
2026-05-08 02:07 69.30455 16.11784 35 ft 31 kts 331°
2026-05-08 02:07 69.30595 16.11625 29 ft 22 kts 30°
2026-05-08 02:08 69.30661 16.11922 29 ft 10 kts 59°
2026-05-08 02:08 69.30636 16.12112 32 ft 16 kts 145°
2026-05-08 02:08 69.30430 16.12458 29 ft 64 kts 148°
2026-05-08 02:08 69.29888 16.13365 56 ft 108 kts 153°
2026-05-08 02:09 69.29201 16.14513 261 ft 118 kts 153°
2026-05-08 02:09 69.28436 16.15725 484 ft 129 kts 154°
2026-05-08 02:09 69.27667 16.16907 884 ft 125 kts 152°
2026-05-08 02:09 69.26941 16.18265 1259 ft 125 kts 149°
2026-05-08 02:10 69.26249 16.19748 1627 ft 124 kts 148°
2026-05-08 02:10 69.25579 16.21287 1999 ft 124 kts 147°
2026-05-08 02:10 69.24961 16.23006 2376 ft 130 kts 127°
2026-05-08 02:10 69.24678 16.25482 2753 ft 135 kts 111°
2026-05-08 02:11 69.24369 16.28017 3032 ft 139 kts 122°
2026-05-08 02:11 69.23895 16.30419 3302 ft 142 kts 129°
2026-05-08 02:11 69.23317 16.32700 3570 ft 144 kts 134°
2026-05-08 02:11 69.22682 16.34900 3812 ft 146 kts 136°
2026-05-08 02:12 69.22015 16.37077 4078 ft 147 kts 137°
2026-05-08 02:12 69.21329 16.39250 4345 ft 149 kts 137°
2026-05-08 02:12 69.20636 16.41428 4615 ft 150 kts 137°
2026-05-08 02:12 69.19945 16.43583 4882 ft 150 kts 137°
2026-05-08 02:13 69.19243 16.45770 5140 ft 151 kts 137°
2026-05-08 02:13 69.18536 16.47965 5403 ft 151 kts 137°
2026-05-08 02:13 69.17828 16.50165 5668 ft 152 kts 137°
2026-05-08 02:13 69.17118 16.52368 5940 ft 152 kts 137°
2026-05-08 02:14 69.16404 16.54577 6209 ft 153 kts 137°
2026-05-08 02:14 69.15690 16.56788 6475 ft 153 kts 137°
2026-05-08 02:14 69.14973 16.59003 6742 ft 153 kts 137°
2026-05-08 02:14 69.14255 16.61223 6999 ft 154 kts 137°
2026-05-08 02:15 69.13531 16.63454 7259 ft 154 kts 137°
2026-05-08 02:15 69.12803 16.65696 7459 ft 159 kts 137°
2026-05-08 02:15 69.12034 16.68044 7491 ft 171 kts 136°
2026-05-08 02:15 69.11212 16.70558 7504 ft 178 kts 136°
2026-05-08 02:16 69.10363 16.73166 7508 ft 183 kts 136°
2026-05-08 02:16 69.09494 16.75833 7509 ft 186 kts 136°
2026-05-08 02:16 69.08914 16.77613 7509 ft 187 kts 136°
2026-05-08 02:16 69.08033 16.80315 7514 ft 189 kts 136°
2026-05-08 02:17 69.07143 16.83039 7521 ft 190 kts 136°
2026-05-08 02:17 69.06247 16.85770 7519 ft 191 kts 136°
2026-05-08 02:17 69.05348 16.88516 7516 ft 191 kts 136°
2026-05-08 02:17 69.04450 16.91252 7510 ft 191 kts 136°
2026-05-08 02:18 69.03555 16.93974 7509 ft 190 kts 136°
2026-05-08 02:18 69.02659 16.96697 7512 ft 190 kts 136°
2026-05-08 02:18 69.01765 16.99406 7512 ft 190 kts 136°
2026-05-08 02:18 69.00866 17.02130 7514 ft 191 kts 136°
2026-05-08 02:19 68.99965 17.04851 7518 ft 191 kts 136°
2026-05-08 02:19 68.99062 17.07579 7517 ft 192 kts 136°
2026-05-08 02:19 68.98156 17.10311 7516 ft 192 kts 136°
2026-05-08 02:19 68.97251 17.13038 7516 ft 192 kts 136°
2026-05-08 02:20 68.96346 17.15764 7509 ft 192 kts 136°
2026-05-08 02:20 68.95438 17.18490 7513 ft 192 kts 136°
2026-05-08 02:20 68.94527 17.21224 7515 ft 193 kts 136°
2026-05-08 02:20 68.93612 17.23965 7516 ft 193 kts 136°
2026-05-08 02:21 68.92696 17.26708 7517 ft 194 kts 136°
2026-05-08 02:21 68.91777 17.29453 7509 ft 194 kts 136°
2026-05-08 02:21 68.90862 17.32194 7508 ft 194 kts 136°
2026-05-08 02:21 68.89942 17.34930 7519 ft 195 kts 136°
2026-05-08 02:22 68.89029 17.37648 7513 ft 195 kts 136°
2026-05-08 02:22 68.88104 17.40400 7507 ft 195 kts 136°
2026-05-08 02:22 68.87179 17.43147 7505 ft 194 kts 136°
2026-05-08 02:22 68.86259 17.45883 7496 ft 193 kts 136°
2026-05-08 02:23 68.85344 17.48591 7501 ft 192 kts 136°
2026-05-08 02:23 68.84427 17.51301 7512 ft 193 kts 136°
2026-05-08 02:23 68.83507 17.54016 7526 ft 194 kts 136°
2026-05-08 02:23 68.82576 17.56757 7532 ft 197 kts 136°
2026-05-08 02:24 68.81631 17.59540 7526 ft 199 kts 136°
2026-05-08 02:24 68.80681 17.62336 7524 ft 200 kts 136°
2026-05-08 02:24 68.79726 17.65141 7518 ft 200 kts 136°
2026-05-08 02:24 68.78779 17.67921 7505 ft 198 kts 136°
2026-05-08 02:25 68.77838 17.70683 7502 ft 196 kts 136°
2026-05-08 02:25 68.76918 17.73384 7497 ft 194 kts 136°
2026-05-08 02:25 68.75996 17.76082 7504 ft 192 kts 137°
2026-05-08 02:25 68.75078 17.78758 7511 ft 192 kts 137°
2026-05-08 02:26 68.74163 17.81424 7519 ft 192 kts 137°
2026-05-08 02:26 68.73242 17.84106 7534 ft 193 kts 136°
2026-05-08 02:26 68.72313 17.86803 7533 ft 195 kts 136°
2026-05-08 02:26 68.71375 17.89525 7528 ft 196 kts 137°
2026-05-08 02:27 68.70437 17.92242 7510 ft 195 kts 136°
2026-05-08 02:27 68.69508 17.94942 7513 ft 194 kts 136°
2026-05-08 02:27 68.68578 17.97635 7523 ft 194 kts 136°
2026-05-08 02:27 68.67645 18.00331 7531 ft 195 kts 136°
2026-05-08 02:28 68.66709 18.03028 7529 ft 195 kts 136°
2026-05-08 02:28 68.65771 18.05727 7540 ft 196 kts 136°
2026-05-08 02:28 68.64828 18.08444 7534 ft 197 kts 136°
2026-05-08 02:28 68.63886 18.11157 7523 ft 196 kts 136°
2026-05-08 02:29 68.62946 18.13855 7530 ft 195 kts 136°
2026-05-08 02:29 68.62005 18.16550 7535 ft 196 kts 136°
2026-05-08 02:29 68.61060 18.19254 7535 ft 196 kts 136°
2026-05-08 02:29 68.60117 18.21951 7531 ft 196 kts 136°
2026-05-08 02:30 68.59172 18.24648 7557 ft 197 kts 136°
2026-05-08 02:30 68.58230 18.27332 7550 ft 199 kts 136°
2026-05-08 02:30 68.57270 18.30065 7537 ft 199 kts 136°
2026-05-08 02:30 68.56313 18.32786 7534 ft 198 kts 136°
2026-05-08 02:31 68.55359 18.35497 7520 ft 197 kts 136°
2026-05-08 02:31 68.54417 18.38172 7497 ft 193 kts 136°
2026-05-08 02:31 68.53490 18.40798 7538 ft 192 kts 136°
2026-05-08 02:31 68.52558 18.43445 7558 ft 195 kts 136°
2026-05-08 02:32 68.51607 18.46131 7546 ft 197 kts 136°
2026-05-08 02:32 68.50653 18.48821 7544 ft 197 kts 137°
2026-05-08 02:32 68.49699 18.51508 7545 ft 197 kts 137°
2026-05-08 02:32 68.48745 18.54191 7545 ft 197 kts 137°
2026-05-08 02:33 68.47792 18.56873 7544 ft 197 kts 137°
2026-05-08 02:33 68.46839 18.59548 7544 ft 196 kts 137°
2026-05-08 02:33 68.45900 18.62183 7546 ft 196 kts 137°
2026-05-08 02:33 68.44948 18.64850 7547 ft 196 kts 137°
2026-05-08 02:34 68.43984 18.67548 7546 ft 197 kts 137°
2026-05-08 02:34 68.43041 18.70183 7547 ft 197 kts 137°
2026-05-08 02:34 68.42083 18.72856 7546 ft 197 kts 137°
2026-05-08 02:34 68.41127 18.75520 7546 ft 197 kts 137°
2026-05-08 02:35 68.40171 18.78181 7551 ft 197 kts 137°
2026-05-08 02:35 68.39212 18.80842 7550 ft 197 kts 137°
2026-05-08 02:35 68.38255 18.83501 7550 ft 197 kts 137°
2026-05-08 02:35 68.37298 18.86153 7555 ft 197 kts 137°
2026-05-08 02:36 68.36339 18.88809 7553 ft 197 kts 137°
2026-05-08 02:36 68.35382 18.91454 7553 ft 197 kts 137°
2026-05-08 02:36 68.34435 18.94069 7553 ft 197 kts 137°
2026-05-08 02:36 68.33476 18.96712 7554 ft 197 kts 137°
2026-05-08 02:37 68.32518 18.99350 7561 ft 197 kts 137°
2026-05-08 02:37 68.31555 19.01998 7561 ft 198 kts 137°
2026-05-08 02:37 68.30588 19.04656 7562 ft 198 kts 137°
2026-05-08 02:37 68.29619 19.07314 7561 ft 199 kts 137°
2026-05-08 02:38 68.28648 19.09972 7545 ft 198 kts 137°
2026-05-08 02:38 68.27681 19.12626 7546 ft 197 kts 137°
2026-05-08 02:38 68.26770 19.15399 7550 ft 198 kts 128°
2026-05-08 02:38 68.26033 19.18547 7553 ft 199 kts 122°
2026-05-08 02:39 68.25363 19.21827 7564 ft 200 kts 120°
2026-05-08 02:39 68.24708 19.25132 7564 ft 200 kts 120°
2026-05-08 02:39 68.24044 19.28448 7563 ft 201 kts 121°
2026-05-08 02:39 68.23380 19.31708 7551 ft 200 kts 121°
2026-05-08 02:40 68.22695 19.35024 7553 ft 200 kts 121°
2026-05-08 02:40 68.22022 19.38238 7556 ft 200 kts 122°
2026-05-08 02:40 68.21333 19.41494 7562 ft 200 kts 122°
2026-05-08 02:40 68.20644 19.44744 7556 ft 199 kts 122°
2026-05-08 02:41 68.19956 19.47972 7556 ft 199 kts 121°
2026-05-08 02:41 68.19270 19.51189 7557 ft 198 kts 121°
2026-05-08 02:41 68.18585 19.54393 7564 ft 198 kts 121°
2026-05-08 02:41 68.17898 19.57598 7561 ft 197 kts 121°
2026-05-08 02:42 68.17212 19.60793 7567 ft 197 kts 121°
2026-05-08 02:42 68.16526 19.63985 7565 ft 198 kts 121°
2026-05-08 02:42 68.15839 19.67181 7566 ft 198 kts 121°
2026-05-08 02:42 68.15150 19.70379 7566 ft 198 kts 121°
2026-05-08 02:43 68.14460 19.73577 7566 ft 198 kts 121°
2026-05-08 02:43 68.13769 19.76776 7569 ft 198 kts 121°
2026-05-08 02:43 68.13085 19.79934 7564 ft 198 kts 121°
2026-05-08 02:43 68.12393 19.83129 7573 ft 198 kts 121°
2026-05-08 02:44 68.11701 19.86315 7566 ft 198 kts 121°
2026-05-08 02:44 68.11007 19.89508 7560 ft 198 kts 121°
2026-05-08 02:44 68.10314 19.92689 7556 ft 198 kts 121°
2026-05-08 02:44 68.09621 19.95866 7552 ft 198 kts 121°
2026-05-08 02:45 68.08925 19.99053 7548 ft 198 kts 121°
2026-05-08 02:45 68.08233 20.02222 7543 ft 194 kts 122°
2026-05-08 02:45 68.07576 20.05227 7539 ft 186 kts 122°
2026-05-08 02:45 68.06912 20.08253 7316 ft 191 kts 122°
2026-05-08 02:46 68.06233 20.11343 7078 ft 194 kts 122°
2026-05-08 02:46 68.05547 20.14460 6831 ft 195 kts 122°
2026-05-08 02:46 68.04859 20.17584 6598 ft 195 kts 122°
2026-05-08 02:46 68.04172 20.20698 6351 ft 195 kts 121°
2026-05-08 02:47 68.03483 20.23814 6105 ft 194 kts 121°
2026-05-08 02:47 68.02796 20.26923 5860 ft 194 kts 121°
2026-05-08 02:47 68.02111 20.30016 5608 ft 193 kts 122°
2026-05-08 02:47 68.01432 20.33078 5377 ft 188 kts 122°
2026-05-08 02:48 68.00776 20.36033 5140 ft 183 kts 122°
2026-05-08 02:48 68.00134 20.38922 4896 ft 179 kts 122°
2026-05-08 02:48 67.99501 20.41765 4646 ft 177 kts 122°
2026-05-08 02:48 67.98877 20.44566 4405 ft 175 kts 122°
2026-05-08 02:49 67.98263 20.47317 4161 ft 170 kts 122°
2026-05-08 02:49 67.97665 20.49992 3925 ft 166 kts 122°
2026-05-08 02:49 67.97079 20.52567 3816 ft 157 kts 126°
2026-05-08 02:49 67.96313 20.54469 3800 ft 148 kts 153°
2026-05-08 02:50 67.95349 20.55284 3795 ft 144 kts 176°
2026-05-08 02:50 67.94414 20.54779 3788 ft 140 kts 208°
2026-05-08 02:50 67.93555 20.53574 3785 ft 139 kts 211°
2026-05-08 02:50 67.92744 20.52321 3779 ft 132 kts 213°
2026-05-08 02:51 67.91970 20.51045 3690 ft 134 kts 214°
2026-05-08 02:51 67.91175 20.49662 3491 ft 139 kts 216°
2026-05-08 02:51 67.90369 20.48195 3286 ft 141 kts 217°
2026-05-08 02:51 67.89565 20.46739 3078 ft 138 kts 217°
2026-05-08 02:52 67.88758 20.45317 2812 ft 139 kts 217°
2026-05-08 02:52 67.87957 20.43905 2557 ft 137 kts 214°
2026-05-08 02:52 67.87168 20.42529 2377 ft 133 kts 216°
2026-05-08 02:52 67.86418 20.41170 2240 ft 126 kts 215°
2026-05-08 02:53 67.85706 20.39894 2111 ft 122 kts 214°
2026-05-08 02:53 67.85011 20.38643 1921 ft 118 kts 214°
2026-05-08 02:53 67.84352 20.37467 1785 ft 107 kts 212°
2026-05-08 02:53 67.83758 20.36447 1637 ft 99 kts 213°
2026-05-08 02:54 67.83198 20.35451 1498 ft 96 kts 213°
2026-05-08 02:54 67.82702 20.34574 1450 ft 70 kts 214°
2026-05-08 02:54 67.82417 20.34072 1449 ft 18 kts 217°
2026-05-08 02:54 67.82427 20.33814 1449 ft 15 kts 300°
2026-05-08 02:55 67.82458 20.33607 1449 ft 11 kts 264°
2026-05-08 02:55 67.82452 20.33290 1449 ft 0 kts 348°